NOZ6YV ENGM-LGSA

Flight info

Callsign NOZ6YV
Flight time 3h 38m
Altitude 35000
Route OKSAT L996 KELIN DCT POKEN DCT DENKO L616 DESEN DCT MAKAL DCT PARAK DCT IRGOR DCT IBISI DCT MAKED UL617 AGISA DCT ATV UP169 MANOK UL612 RUSOS
Aircraft B738/M-SDE2E3FGHIRWXY/LB1

Departure

Time 2026-04-30 08:43
Airport Oslo-Gardermoen International Airport (ENGM)

Arrival

Time 2026-04-30 12:22
Airport Chania International Airport (LGSA)
Time Latitude Longitude Altitude Speed Heading
2026-04-30 08:24 60.19574 11.09351 684 ft 0 kts 196°
2026-04-30 08:34 60.19585 11.09357 680 ft 4 kts 196°
2026-04-30 08:34 60.19611 11.09372 682 ft 4 kts 196°
2026-04-30 08:34 60.19617 11.09376 682 ft 0 kts 196°
2026-04-30 08:36 60.19613 11.09377 682 ft 1 kts 171°
2026-04-30 08:37 60.19611 11.09401 678 ft 3 kts 89°
2026-04-30 08:37 60.19621 11.09486 684 ft 9 kts 76°
2026-04-30 08:37 60.19641 11.09651 681 ft 14 kts 77°
2026-04-30 08:37 60.19711 11.09769 678 ft 14 kts 16°
2026-04-30 08:38 60.19800 11.09818 683 ft 13 kts 15°
2026-04-30 08:38 60.19886 11.09869 682 ft 13 kts 16°
2026-04-30 08:38 60.19972 11.09919 683 ft 13 kts 15°
2026-04-30 08:38 60.20041 11.10012 680 ft 13 kts 79°
2026-04-30 08:39 60.20022 11.10184 685 ft 13 kts 105°
2026-04-30 08:39 60.19996 11.10370 678 ft 15 kts 107°
2026-04-30 08:39 60.19964 11.10585 679 ft 17 kts 106°
2026-04-30 08:39 60.19931 11.10821 683 ft 17 kts 106°
2026-04-30 08:40 60.19898 11.11050 682 ft 17 kts 106°
2026-04-30 08:40 60.19867 11.11266 678 ft 16 kts 105°
2026-04-30 08:40 60.19844 11.11480 683 ft 15 kts 79°
2026-04-30 08:40 60.19932 11.11577 680 ft 15 kts 15°
2026-04-30 08:41 60.20029 11.11632 683 ft 14 kts 16°
2026-04-30 08:41 60.20085 11.11761 682 ft 14 kts 98°
2026-04-30 08:41 60.20061 11.11943 685 ft 13 kts 106°
2026-04-30 08:41 60.20035 11.12115 682 ft 13 kts 107°
2026-04-30 08:42 60.19978 11.12165 687 ft 2 kts 194°
2026-04-30 08:42 60.19967 11.12159 687 ft 2 kts 195°
2026-04-30 08:42 60.19829 11.12079 686 ft 54 kts 196°
2026-04-30 08:42 60.19241 11.11740 682 ft 120 kts 196°
2026-04-30 08:43 60.18257 11.11169 748 ft 167 kts 198°
2026-04-30 08:43 60.17104 11.10453 1341 ft 179 kts 196°
2026-04-30 08:43 60.15897 11.09773 2126 ft 182 kts 195°
2026-04-30 08:43 60.14633 11.09141 2713 ft 200 kts 190°
2026-04-30 08:44 60.13175 11.09426 2926 ft 226 kts 157°
2026-04-30 08:44 60.11854 11.11320 3358 ft 242 kts 136°
2026-04-30 08:44 60.10646 11.13898 3675 ft 263 kts 133°
2026-04-30 08:44 60.09399 11.16597 4373 ft 270 kts 134°
2026-04-30 08:45 60.08112 11.19353 5249 ft 272 kts 134°
2026-04-30 08:45 60.06801 11.22138 6010 ft 278 kts 135°
2026-04-30 08:45 60.05484 11.25026 6764 ft 284 kts 129°
2026-04-30 08:45 60.04314 11.28249 7469 ft 289 kts 125°
2026-04-30 08:46 60.03165 11.31589 8197 ft 293 kts 124°
2026-04-30 08:46 60.02281 11.35271 8898 ft 297 kts 99°
2026-04-30 08:46 60.02303 11.39342 9662 ft 294 kts 71°
2026-04-30 08:46 60.03145 11.42942 10409 ft 289 kts 49°
2026-04-30 08:47 60.04516 11.45922 10864 ft 299 kts 40°
2026-04-30 08:47 60.06067 11.48927 11035 ft 322 kts 40°
2026-04-30 08:47 60.07710 11.52150 11410 ft 337 kts 44°
2026-04-30 08:47 60.08938 11.56207 12026 ft 351 kts 69°
2026-04-30 08:48 60.09207 11.61099 12811 ft 359 kts 92°
2026-04-30 08:48 60.08617 11.66014 13545 ft 366 kts 104°
2026-04-30 08:48 60.07802 11.70883 14202 ft 371 kts 105°
2026-04-30 08:48 60.06955 11.75792 14794 ft 376 kts 105°
2026-04-30 08:49 60.06123 11.80704 15407 ft 379 kts 105°
2026-04-30 08:49 60.05294 11.85721 16016 ft 382 kts 104°
2026-04-30 08:49 60.04464 11.90796 16620 ft 385 kts 104°
2026-04-30 08:49 60.03444 11.95791 17172 ft 395 kts 119°
2026-04-30 08:50 60.01569 11.99862 17733 ft 405 kts 143°
2026-04-30 08:50 59.99040 12.02383 18275 ft 412 kts 164°
2026-04-30 08:50 59.96191 12.03041 18737 ft 415 kts 185°
2026-04-30 08:50 59.93308 12.02622 19288 ft 417 kts 186°
2026-04-30 08:51 59.90409 12.02188 19810 ft 419 kts 185°
2026-04-30 08:51 59.87539 12.01815 20354 ft 420 kts 185°
2026-04-30 08:51 59.84610 12.01476 20878 ft 423 kts 185°
2026-04-30 08:51 59.81663 12.01149 21380 ft 426 kts 185°
2026-04-30 08:52 59.78697 12.00818 21872 ft 428 kts 185°
2026-04-30 08:52 59.75710 12.00483 22363 ft 431 kts 185°
2026-04-30 08:52 59.72706 12.00145 22861 ft 434 kts 185°
2026-04-30 08:52 59.69683 11.99805 23349 ft 436 kts 185°
2026-04-30 08:53 59.66644 11.99463 23829 ft 439 kts 185°
2026-04-30 08:53 59.63624 11.99125 24229 ft 442 kts 185°
2026-04-30 08:53 59.60549 11.98781 24621 ft 443 kts 185°
2026-04-30 08:53 59.57473 11.98437 25052 ft 444 kts 185°
2026-04-30 08:54 59.54378 11.98090 25453 ft 446 kts 185°
2026-04-30 08:54 59.51270 11.97742 25818 ft 448 kts 184°
2026-04-30 08:54 59.48156 11.97394 26195 ft 450 kts 184°
2026-04-30 08:54 59.45020 11.97045 26558 ft 452 kts 184°
2026-04-30 08:55 59.41873 11.96695 26920 ft 454 kts 184°
2026-04-30 08:55 59.38713 11.96344 27283 ft 456 kts 184°
2026-04-30 08:55 59.35540 11.95992 27631 ft 458 kts 184°
2026-04-30 08:55 59.32397 11.95645 27958 ft 460 kts 184°
2026-04-30 08:56 59.29200 11.95299 28298 ft 461 kts 184°
2026-04-30 08:56 59.25986 11.94958 28633 ft 463 kts 184°
2026-04-30 08:56 59.22769 11.94619 28949 ft 465 kts 184°
2026-04-30 08:56 59.19528 11.94278 29260 ft 467 kts 184°
2026-04-30 08:57 59.16280 11.93936 29570 ft 468 kts 184°
2026-04-30 08:57 59.13020 11.93592 29867 ft 470 kts 184°
2026-04-30 08:57 59.09792 11.93251 30158 ft 472 kts 184°
2026-04-30 08:57 59.06508 11.92905 30433 ft 473 kts 184°
2026-04-30 08:58 59.03223 11.92560 30700 ft 474 kts 184°
2026-04-30 08:58 58.99930 11.92202 31021 ft 473 kts 184°
2026-04-30 08:58 58.96646 11.91834 31371 ft 472 kts 184°
2026-04-30 08:58 58.93374 11.91465 31713 ft 470 kts 184°
2026-04-30 08:59 58.90108 11.91098 32018 ft 470 kts 184°
2026-04-30 08:59 58.86845 11.90735 32306 ft 470 kts 184°
2026-04-30 08:59 58.83582 11.90374 32629 ft 469 kts 184°
2026-04-30 08:59 58.80325 11.90230 32923 ft 468 kts 176°
2026-04-30 09:00 58.77140 11.90935 33204 ft 468 kts 171°
2026-04-30 09:00 58.73927 11.91885 33490 ft 467 kts 171°
2026-04-30 09:00 58.70716 11.92852 33756 ft 467 kts 171°
2026-04-30 09:00 58.67502 11.93787 34033 ft 466 kts 171°
2026-04-30 09:01 58.64295 11.94682 34337 ft 465 kts 172°
2026-04-30 09:01 58.61095 11.95550 34609 ft 464 kts 172°
2026-04-30 09:01 58.57898 11.96410 34827 ft 464 kts 172°
2026-04-30 09:01 58.54710 11.97266 35017 ft 464 kts 172°
2026-04-30 09:02 58.48364 11.98978 35431 ft 463 kts 172°
2026-04-30 09:02 58.41945 12.00707 35431 ft 466 kts 172°
2026-04-30 09:03 58.35549 12.02423 35433 ft 462 kts 172°
2026-04-30 09:03 58.29205 12.04119 35427 ft 460 kts 172°
2026-04-30 09:04 58.22993 12.06389 35432 ft 457 kts 159°
2026-04-30 09:04 58.17153 12.11029 35435 ft 455 kts 155°
2026-04-30 09:05 58.11350 12.15827 35444 ft 456 kts 155°
2026-04-30 09:05 58.05511 12.20574 35453 ft 458 kts 156°
2026-04-30 09:06 57.99633 12.25282 35451 ft 460 kts 156°
2026-04-30 09:06 57.93719 12.29985 35455 ft 463 kts 155°
2026-04-30 09:07 57.87810 12.34665 35438 ft 465 kts 155°
2026-04-30 09:07 57.81837 12.39381 35436 ft 466 kts 155°
2026-04-30 09:08 57.75849 12.44093 35427 ft 467 kts 155°
2026-04-30 09:08 57.69846 12.48800 35427 ft 468 kts 155°
2026-04-30 09:09 57.63885 12.53457 35451 ft 467 kts 156°
2026-04-30 09:09 57.57896 12.58119 35459 ft 466 kts 156°
2026-04-30 09:10 57.51923 12.62753 35446 ft 464 kts 156°
2026-04-30 09:10 57.45971 12.67353 35456 ft 463 kts 156°
2026-04-30 09:11 57.40063 12.71904 35456 ft 463 kts 155°
2026-04-30 09:11 57.34116 12.76469 35457 ft 463 kts 155°
2026-04-30 09:12 57.28160 12.81025 35453 ft 464 kts 155°
2026-04-30 09:12 57.22197 12.85570 35454 ft 464 kts 155°
2026-04-30 09:13 57.16215 12.90114 35443 ft 466 kts 155°
2026-04-30 09:13 57.10251 12.94628 35456 ft 467 kts 155°
2026-04-30 09:14 57.04244 12.99159 35448 ft 467 kts 155°
2026-04-30 09:14 56.98224 13.03683 35461 ft 468 kts 155°
2026-04-30 09:15 56.92195 13.08197 35464 ft 468 kts 155°
2026-04-30 09:15 56.86203 13.12669 35459 ft 468 kts 155°
2026-04-30 09:16 56.80174 13.17153 35453 ft 468 kts 155°
2026-04-30 09:16 56.74151 13.21617 35455 ft 467 kts 155°
2026-04-30 09:17 56.68136 13.26060 35455 ft 466 kts 155°
2026-04-30 09:17 56.62171 13.30450 35454 ft 465 kts 155°
2026-04-30 09:18 56.56182 13.34843 35446 ft 464 kts 155°
2026-04-30 09:18 56.50198 13.39217 35459 ft 463 kts 155°
2026-04-30 09:19 56.44212 13.43579 35461 ft 464 kts 154°
2026-04-30 09:19 56.38252 13.47907 35459 ft 465 kts 154°
2026-04-30 09:20 56.32237 13.52261 35454 ft 466 kts 154°
2026-04-30 09:20 56.26202 13.56613 35456 ft 468 kts 154°
2026-04-30 09:21 56.20149 13.60963 35451 ft 469 kts 154°
2026-04-30 09:21 56.14086 13.65305 35450 ft 470 kts 154°
2026-04-30 09:22 56.08047 13.69616 35456 ft 470 kts 155°
2026-04-30 09:22 56.01959 13.73946 35483 ft 471 kts 154°
2026-04-30 09:23 55.95856 13.78274 35464 ft 472 kts 154°
2026-04-30 09:23 55.89748 13.82589 35452 ft 473 kts 154°
2026-04-30 09:24 55.83664 13.86874 35440 ft 473 kts 154°
2026-04-30 09:24 55.77533 13.91176 35448 ft 474 kts 154°
2026-04-30 09:25 55.71400 13.95465 35454 ft 474 kts 154°
2026-04-30 09:25 55.65272 13.99737 35451 ft 474 kts 154°
2026-04-30 09:26 55.59139 14.03998 35449 ft 473 kts 154°
2026-04-30 09:26 55.53050 14.08213 35458 ft 474 kts 154°
2026-04-30 09:27 55.46912 14.12449 35469 ft 473 kts 154°
2026-04-30 09:27 55.40776 14.16669 35454 ft 473 kts 154°
2026-04-30 09:28 55.34681 14.20847 35452 ft 473 kts 154°
2026-04-30 09:28 55.28551 14.25035 35454 ft 473 kts 154°
2026-04-30 09:29 55.22417 14.29213 35459 ft 473 kts 154°
2026-04-30 09:29 55.16281 14.33378 35457 ft 473 kts 154°
2026-04-30 09:30 55.10185 14.37502 35462 ft 473 kts 154°
2026-04-30 09:30 55.04046 14.41641 35463 ft 474 kts 153°
2026-04-30 09:31 54.97888 14.45780 35465 ft 475 kts 153°
2026-04-30 09:31 54.91718 14.49914 35460 ft 475 kts 153°
2026-04-30 09:32 54.85540 14.54041 35470 ft 476 kts 153°
2026-04-30 09:32 54.79392 14.58133 35475 ft 477 kts 153°
2026-04-30 09:33 54.73199 14.62247 35474 ft 477 kts 153°
2026-04-30 09:33 54.67005 14.66351 35473 ft 477 kts 153°
2026-04-30 09:34 54.60848 14.70419 35496 ft 477 kts 153°
2026-04-30 09:34 54.54642 14.74506 35485 ft 477 kts 153°
2026-04-30 09:35 54.48436 14.78579 35475 ft 477 kts 153°
2026-04-30 09:35 54.42235 14.82635 35480 ft 477 kts 153°
2026-04-30 09:36 54.36046 14.86670 35478 ft 476 kts 153°
2026-04-30 09:36 54.29897 14.90667 35482 ft 475 kts 153°
2026-04-30 09:37 54.23713 14.94673 35480 ft 475 kts 153°
2026-04-30 09:37 54.17533 14.98665 35527 ft 475 kts 153°
2026-04-30 09:38 54.11351 15.02646 35492 ft 475 kts 153°
2026-04-30 09:38 54.05200 15.06593 35487 ft 475 kts 153°
2026-04-30 09:39 53.99013 15.10550 35487 ft 475 kts 153°
2026-04-30 09:39 53.92821 15.14498 35484 ft 475 kts 153°
2026-04-30 09:40 53.86628 15.18435 35487 ft 475 kts 153°
2026-04-30 09:40 53.80433 15.22360 35478 ft 475 kts 153°
2026-04-30 09:41 53.74275 15.26250 35488 ft 475 kts 153°
2026-04-30 09:41 53.68076 15.30153 35489 ft 475 kts 153°
2026-04-30 09:42 53.61881 15.34041 35474 ft 475 kts 153°
2026-04-30 09:42 53.55682 15.37920 35482 ft 475 kts 153°
2026-04-30 09:43 53.49479 15.41789 35484 ft 475 kts 153°
2026-04-30 09:43 53.43317 15.45620 35481 ft 475 kts 153°
2026-04-30 09:44 53.37116 15.49464 35485 ft 475 kts 153°
2026-04-30 09:44 53.30926 15.53289 35486 ft 474 kts 153°
2026-04-30 09:45 53.24731 15.57106 35484 ft 475 kts 152°
2026-04-30 09:45 53.18572 15.60889 35495 ft 475 kts 152°
2026-04-30 09:46 53.12368 15.64687 35488 ft 475 kts 152°
2026-04-30 09:46 53.06167 15.68472 35485 ft 475 kts 152°
2026-04-30 09:47 52.99965 15.72246 35488 ft 475 kts 152°
2026-04-30 09:47 52.93764 15.76009 35490 ft 474 kts 152°
2026-04-30 09:48 52.87608 15.79735 35489 ft 474 kts 152°
2026-04-30 09:48 52.81412 15.83481 35518 ft 474 kts 151°
2026-04-30 09:49 52.75330 15.87597 35501 ft 471 kts 148°
2026-04-30 09:49 52.69312 15.91898 35489 ft 471 kts 148°
2026-04-30 09:50 52.63327 15.96137 35496 ft 471 kts 148°
2026-04-30 09:50 52.57286 16.00357 35488 ft 472 kts 148°
2026-04-30 09:51 52.51247 16.04543 35491 ft 471 kts 149°
2026-04-30 09:51 52.45201 16.08720 35491 ft 471 kts 149°
2026-04-30 09:52 52.39192 16.12862 35481 ft 472 kts 148°
2026-04-30 09:52 52.33136 16.17025 35495 ft 472 kts 148°
2026-04-30 09:53 52.28105 16.20473 35494 ft 472 kts 148°
2026-04-30 09:53 52.22042 16.24618 35493 ft 472 kts 148°
2026-04-30 09:54 52.15975 16.28754 35489 ft 473 kts 148°
2026-04-30 09:54 52.08916 16.33550 35490 ft 473 kts 148°
2026-04-30 09:55 52.03869 16.36969 35489 ft 473 kts 148°
2026-04-30 09:55 51.97780 16.41084 35496 ft 475 kts 148°
2026-04-30 09:56 51.91682 16.45192 35493 ft 475 kts 148°
2026-04-30 09:56 51.85578 16.49291 35494 ft 475 kts 148°
2026-04-30 09:57 51.79521 16.53347 35496 ft 475 kts 148°
2026-04-30 09:57 51.73418 16.57424 35492 ft 474 kts 148°
2026-04-30 09:58 51.67315 16.61488 35491 ft 474 kts 148°
2026-04-30 09:58 51.61220 16.65525 35514 ft 474 kts 148°
2026-04-30 09:59 51.49055 16.73547 35493 ft 474 kts 149°
2026-04-30 10:00 51.39909 16.79538 35495 ft 473 kts 149°
2026-04-30 10:01 51.30763 16.85501 35491 ft 473 kts 149°
2026-04-30 10:02 51.21663 16.91414 35507 ft 473 kts 149°
2026-04-30 10:02 51.15565 16.95366 35496 ft 473 kts 149°
2026-04-30 10:03 51.09485 16.99315 35484 ft 472 kts 149°
2026-04-30 10:03 51.03441 17.03234 35484 ft 472 kts 149°
2026-04-30 10:04 50.97368 17.07160 35486 ft 471 kts 149°
2026-04-30 10:04 50.91295 17.11074 35482 ft 471 kts 149°
2026-04-30 10:05 50.85225 17.14976 35522 ft 471 kts 149°
2026-04-30 10:05 50.79186 17.18833 35493 ft 471 kts 150°
2026-04-30 10:06 50.73101 17.22695 35488 ft 471 kts 150°
2026-04-30 10:06 50.67015 17.26548 35482 ft 471 kts 150°
2026-04-30 10:07 50.60941 17.30388 35486 ft 471 kts 150°
2026-04-30 10:07 50.54896 17.34200 35484 ft 471 kts 150°
2026-04-30 10:08 50.48823 17.38018 35494 ft 470 kts 150°
2026-04-30 10:08 50.42739 17.41834 35489 ft 471 kts 151°
2026-04-30 10:09 50.36649 17.45644 35485 ft 471 kts 151°
2026-04-30 10:09 50.30569 17.49462 35477 ft 471 kts 151°
2026-04-30 10:10 50.24534 17.53260 35490 ft 470 kts 150°
2026-04-30 10:10 50.18489 17.57166 35476 ft 470 kts 150°
2026-04-30 10:11 50.12448 17.61085 35478 ft 470 kts 150°
2026-04-30 10:11 50.06402 17.64987 35483 ft 471 kts 151°
2026-04-30 10:12 50.00383 17.68851 35474 ft 471 kts 151°
2026-04-30 10:12 49.94319 17.72731 35466 ft 471 kts 152°
2026-04-30 10:13 49.88258 17.76597 35464 ft 471 kts 152°
2026-04-30 10:13 49.82192 17.80457 35465 ft 471 kts 152°
2026-04-30 10:14 49.76130 17.84305 35454 ft 471 kts 152°
2026-04-30 10:14 49.67090 17.90022 35462 ft 470 kts 152°
2026-04-30 10:15 49.61039 17.93838 35452 ft 470 kts 152°
2026-04-30 10:15 49.54988 17.97642 35457 ft 469 kts 152°
2026-04-30 10:16 49.48985 18.01406 35450 ft 469 kts 152°
2026-04-30 10:17 49.39915 18.07076 35448 ft 469 kts 152°
2026-04-30 10:17 49.30829 18.12733 35453 ft 470 kts 153°
2026-04-30 10:18 49.24775 18.16489 35431 ft 470 kts 153°
2026-04-30 10:19 49.15832 18.22356 35442 ft 467 kts 152°
2026-04-30 10:19 49.09882 18.26356 35431 ft 467 kts 152°
2026-04-30 10:20 49.03930 18.30323 35420 ft 467 kts 152°
2026-04-30 10:20 48.95041 18.36197 35430 ft 466 kts 153°
2026-04-30 10:21 48.89087 18.40115 35405 ft 466 kts 153°
2026-04-30 10:21 48.83137 18.44019 35418 ft 466 kts 153°
2026-04-30 10:22 48.77197 18.47907 35415 ft 465 kts 153°
2026-04-30 10:22 48.71286 18.51767 35399 ft 465 kts 153°
2026-04-30 10:23 48.65344 18.55638 35421 ft 465 kts 153°
2026-04-30 10:23 48.59385 18.59510 35404 ft 467 kts 154°
2026-04-30 10:24 48.53413 18.63379 35402 ft 467 kts 154°
2026-04-30 10:24 48.47477 18.67215 35408 ft 467 kts 154°
2026-04-30 10:25 48.41492 18.71073 35392 ft 468 kts 154°
2026-04-30 10:25 48.35507 18.74922 35393 ft 468 kts 154°
2026-04-30 10:26 48.29516 18.78763 35424 ft 468 kts 155°
2026-04-30 10:26 48.23562 18.82572 35404 ft 468 kts 155°
2026-04-30 10:27 48.17573 18.86394 35391 ft 468 kts 155°
2026-04-30 10:27 48.11598 18.90196 35403 ft 466 kts 155°
2026-04-30 10:28 48.05627 18.93987 35396 ft 466 kts 155°
2026-04-30 10:28 47.99697 18.97742 35391 ft 465 kts 155°
2026-04-30 10:29 47.93733 19.01510 35402 ft 466 kts 155°
2026-04-30 10:29 47.87766 19.05269 35401 ft 465 kts 156°
2026-04-30 10:30 47.81803 19.09017 35393 ft 466 kts 156°
2026-04-30 10:30 47.75832 19.12760 35395 ft 466 kts 156°
2026-04-30 10:31 47.69901 19.16469 35397 ft 466 kts 156°
2026-04-30 10:31 47.63921 19.20200 35393 ft 466 kts 156°
2026-04-30 10:32 47.57931 19.23928 35406 ft 467 kts 156°
2026-04-30 10:32 47.51926 19.27655 35403 ft 468 kts 156°
2026-04-30 10:33 47.45918 19.31374 35405 ft 469 kts 156°
2026-04-30 10:33 47.39933 19.35071 35390 ft 470 kts 156°
2026-04-30 10:34 47.33899 19.38788 35401 ft 470 kts 156°
2026-04-30 10:34 47.27856 19.42502 35405 ft 471 kts 156°
2026-04-30 10:35 47.21798 19.46216 35391 ft 472 kts 156°
2026-04-30 10:35 47.15769 19.49903 35384 ft 473 kts 156°
2026-04-30 10:36 47.09691 19.53611 35364 ft 473 kts 157°
2026-04-30 10:36 47.03615 19.57308 35357 ft 473 kts 157°
2026-04-30 10:37 46.97533 19.60999 35372 ft 473 kts 157°
2026-04-30 10:37 46.91490 19.64658 35354 ft 473 kts 157°
2026-04-30 10:38 46.85415 19.68328 35353 ft 472 kts 157°
2026-04-30 10:38 46.79357 19.71978 35368 ft 471 kts 157°
2026-04-30 10:39 46.73307 19.75615 35368 ft 470 kts 157°
2026-04-30 10:39 46.67309 19.79212 35352 ft 469 kts 158°
2026-04-30 10:40 46.61284 19.82816 35354 ft 469 kts 158°
2026-04-30 10:40 46.55253 19.86415 35344 ft 468 kts 158°
2026-04-30 10:41 46.49220 19.90006 35340 ft 468 kts 158°
2026-04-30 10:41 46.43185 19.93591 35340 ft 469 kts 158°
2026-04-30 10:42 46.37188 19.97144 35340 ft 469 kts 158°
2026-04-30 10:42 46.31137 20.00721 35341 ft 470 kts 158°
2026-04-30 10:43 46.25075 20.04296 35334 ft 471 kts 158°
2026-04-30 10:43 46.19003 20.07870 35324 ft 471 kts 159°
2026-04-30 10:44 46.12879 20.11262 35332 ft 471 kts 162°
2026-04-30 10:44 46.06699 20.14231 35331 ft 472 kts 163°
2026-04-30 10:45 46.00451 20.17172 35330 ft 473 kts 163°
2026-04-30 10:45 45.94211 20.20153 35323 ft 473 kts 163°
2026-04-30 10:46 45.87962 20.23162 35326 ft 473 kts 163°
2026-04-30 10:46 45.81758 20.26150 35320 ft 473 kts 163°
2026-04-30 10:47 45.75512 20.29151 35297 ft 473 kts 163°
2026-04-30 10:47 45.69271 20.32141 35309 ft 473 kts 163°
2026-04-30 10:48 45.63038 20.35119 35323 ft 472 kts 164°
2026-04-30 10:48 45.56817 20.38084 35311 ft 472 kts 164°
2026-04-30 10:49 45.50637 20.41023 35295 ft 470 kts 165°
2026-04-30 10:49 45.44433 20.43967 35304 ft 470 kts 165°
2026-04-30 10:50 45.38235 20.46900 35304 ft 469 kts 165°
2026-04-30 10:50 45.32049 20.49822 35305 ft 468 kts 165°
2026-04-30 10:51 45.25863 20.52737 35302 ft 467 kts 166°
2026-04-30 10:51 45.19735 20.55617 35300 ft 467 kts 166°
2026-04-30 10:52 45.13576 20.58506 35296 ft 466 kts 166°
2026-04-30 10:52 45.07416 20.61388 35287 ft 466 kts 165°
2026-04-30 10:53 45.01264 20.64260 35292 ft 466 kts 165°
2026-04-30 10:53 44.95103 20.67130 35308 ft 466 kts 166°
2026-04-30 10:54 44.88949 20.69991 35295 ft 466 kts 166°
2026-04-30 10:54 44.82820 20.72834 35291 ft 467 kts 166°
2026-04-30 10:55 44.76642 20.75694 35288 ft 467 kts 166°
2026-04-30 10:55 44.70468 20.78572 35286 ft 468 kts 165°
2026-04-30 10:56 44.64389 20.81752 35288 ft 470 kts 163°
2026-04-30 10:56 44.58300 20.85050 35271 ft 469 kts 163°
2026-04-30 10:57 44.52202 20.88311 35284 ft 469 kts 164°
2026-04-30 10:57 44.46099 20.91532 35280 ft 468 kts 164°
2026-04-30 10:58 44.39997 20.94733 35261 ft 468 kts 164°
2026-04-30 10:58 44.33943 20.97900 35276 ft 468 kts 164°
2026-04-30 10:59 44.27849 21.01083 35286 ft 467 kts 165°
2026-04-30 10:59 44.21760 21.04257 35279 ft 467 kts 165°
2026-04-30 11:00 44.15683 21.07419 35283 ft 465 kts 165°
2026-04-30 11:00 44.09619 21.10567 35294 ft 465 kts 165°
2026-04-30 11:01 44.03556 21.13706 35311 ft 467 kts 165°
2026-04-30 11:01 43.97466 21.16849 35510 ft 472 kts 165°
2026-04-30 11:02 43.94390 21.18436 35734 ft 471 kts 165°
2026-04-30 11:02 43.91323 21.20019 35998 ft 470 kts 165°
2026-04-30 11:02 43.88259 21.21598 36207 ft 470 kts 165°
2026-04-30 11:02 43.85190 21.23176 36384 ft 471 kts 165°
2026-04-30 11:03 43.82118 21.24753 36593 ft 471 kts 165°
2026-04-30 11:03 43.79052 21.26327 36807 ft 470 kts 165°
2026-04-30 11:03 43.75985 21.27899 37005 ft 470 kts 165°
2026-04-30 11:04 43.69891 21.31017 37300 ft 470 kts 165°
2026-04-30 11:04 43.63726 21.34163 37305 ft 473 kts 165°
2026-04-30 11:05 43.57573 21.37300 37297 ft 470 kts 165°
2026-04-30 11:05 43.51450 21.40414 37275 ft 467 kts 166°
2026-04-30 11:06 43.45401 21.43483 37307 ft 466 kts 166°
2026-04-30 11:06 43.39312 21.46563 37280 ft 467 kts 166°
2026-04-30 11:07 43.33214 21.49642 37290 ft 466 kts 166°
2026-04-30 11:07 43.27124 21.52713 37281 ft 466 kts 166°
2026-04-30 11:08 43.21070 21.55757 37283 ft 467 kts 166°
2026-04-30 11:08 43.14965 21.58821 37288 ft 468 kts 166°
2026-04-30 11:09 43.08850 21.61883 37276 ft 469 kts 166°
2026-04-30 11:09 43.02711 21.64952 37295 ft 470 kts 166°
2026-04-30 11:10 42.96556 21.68022 37289 ft 472 kts 166°
2026-04-30 11:10 42.90405 21.70988 37298 ft 472 kts 167°
2026-04-30 11:11 42.84180 21.73874 37284 ft 473 kts 167°
2026-04-30 11:11 42.77938 21.76764 37293 ft 474 kts 167°
2026-04-30 11:12 42.71685 21.79671 37291 ft 475 kts 167°
2026-04-30 11:12 42.65481 21.82559 37280 ft 473 kts 167°
2026-04-30 11:13 42.59267 21.85447 37280 ft 471 kts 168°
2026-04-30 11:13 42.53083 21.88313 37270 ft 469 kts 168°
2026-04-30 11:14 42.46918 21.91164 37234 ft 467 kts 168°
2026-04-30 11:14 42.40827 21.93974 37252 ft 465 kts 168°
2026-04-30 11:15 42.34714 21.96787 37240 ft 463 kts 168°
2026-04-30 11:15 42.28618 21.99588 37231 ft 463 kts 168°
2026-04-30 11:16 42.22530 22.02378 37227 ft 463 kts 168°
2026-04-30 11:16 42.16428 22.05169 37230 ft 464 kts 168°
2026-04-30 11:17 42.10350 22.07944 37197 ft 465 kts 168°
2026-04-30 11:17 42.04221 22.10737 37161 ft 466 kts 168°
2026-04-30 11:18 41.98071 22.13534 37185 ft 466 kts 168°
2026-04-30 11:18 41.88839 22.17723 37186 ft 468 kts 168°
2026-04-30 11:19 41.82705 22.20498 37125 ft 470 kts 168°
2026-04-30 11:19 41.76526 22.23290 37146 ft 468 kts 168°
2026-04-30 11:20 41.70372 22.26065 37153 ft 466 kts 168°
2026-04-30 11:20 41.64241 22.28823 37151 ft 464 kts 168°
2026-04-30 11:21 41.58172 22.31547 37147 ft 462 kts 168°
2026-04-30 11:21 41.52096 22.34269 37131 ft 460 kts 168°
2026-04-30 11:22 41.46040 22.36976 37135 ft 458 kts 168°
2026-04-30 11:22 41.40005 22.39668 37137 ft 457 kts 168°
2026-04-30 11:23 41.34022 22.42333 37104 ft 456 kts 168°
2026-04-30 11:24 41.25004 22.46339 37082 ft 456 kts 168°
2026-04-30 11:24 41.18984 22.49007 37099 ft 457 kts 168°
2026-04-30 11:25 41.10063 22.53491 37094 ft 467 kts 158°
2026-04-30 11:26 40.98607 22.61829 37061 ft 471 kts 157°
2026-04-30 11:26 40.92831 22.65969 37042 ft 473 kts 157°
2026-04-30 11:27 40.87036 22.70073 37048 ft 473 kts 157°
2026-04-30 11:27 40.81265 22.74146 37050 ft 473 kts 158°
2026-04-30 11:28 40.72550 22.80286 37044 ft 473 kts 157°
2026-04-30 11:29 40.66760 22.84358 37043 ft 470 kts 157°
2026-04-30 11:29 40.58129 22.90412 37042 ft 467 kts 157°
2026-04-30 11:30 40.49576 22.96394 37046 ft 465 kts 157°
2026-04-30 11:31 40.43823 23.00203 37044 ft 460 kts 163°
2026-04-30 11:31 40.37862 23.03157 37045 ft 457 kts 166°
2026-04-30 11:32 40.31926 23.05993 37054 ft 458 kts 165°
2026-04-30 11:32 40.25956 23.08926 37045 ft 459 kts 165°
2026-04-30 11:33 40.17006 23.13374 37041 ft 459 kts 164°
2026-04-30 11:33 40.11025 23.16335 37046 ft 460 kts 164°
2026-04-30 11:34 40.05084 23.19266 37048 ft 460 kts 165°
2026-04-30 11:34 39.99085 23.22222 37038 ft 461 kts 164°
2026-04-30 11:35 39.93085 23.25175 37051 ft 461 kts 164°
2026-04-30 11:35 39.87080 23.28112 37048 ft 461 kts 165°
2026-04-30 11:36 39.81076 23.31026 37049 ft 461 kts 165°
2026-04-30 11:36 39.75066 23.33942 37053 ft 460 kts 165°
2026-04-30 11:37 39.68993 23.36090 37064 ft 453 kts 174°
2026-04-30 11:37 39.62802 23.37574 37047 ft 452 kts 175°
2026-04-30 11:38 39.56617 23.39052 37045 ft 452 kts 175°
2026-04-30 11:38 39.50437 23.40581 37039 ft 452 kts 174°
2026-04-30 11:39 39.44305 23.42123 37049 ft 452 kts 174°
2026-04-30 11:39 39.38142 23.43677 37051 ft 451 kts 174°
2026-04-30 11:40 39.31975 23.45227 37033 ft 451 kts 174°
2026-04-30 11:40 39.25815 23.46772 37048 ft 451 kts 174°
2026-04-30 11:41 39.19665 23.48310 37049 ft 451 kts 174°
2026-04-30 11:41 39.13553 23.49837 37051 ft 450 kts 174°
2026-04-30 11:42 39.07399 23.51371 37041 ft 450 kts 175°
2026-04-30 11:42 39.01250 23.52902 37049 ft 450 kts 175°
2026-04-30 11:43 38.95105 23.54428 37043 ft 450 kts 175°
2026-04-30 11:43 38.88992 23.55944 37010 ft 450 kts 175°
2026-04-30 11:44 38.82846 23.57466 37034 ft 450 kts 175°
2026-04-30 11:44 38.76693 23.58986 37037 ft 450 kts 175°
2026-04-30 11:45 38.70530 23.60506 37026 ft 452 kts 175°
2026-04-30 11:45 38.64391 23.62018 37015 ft 452 kts 175°
2026-04-30 11:46 38.58212 23.63537 37020 ft 453 kts 175°
2026-04-30 11:46 38.52026 23.65056 37033 ft 453 kts 175°
2026-04-30 11:47 38.45831 23.66573 37028 ft 454 kts 175°
2026-04-30 11:47 38.39677 23.68078 37013 ft 453 kts 175°
2026-04-30 11:48 38.33479 23.69592 37009 ft 453 kts 175°
2026-04-30 11:48 38.27279 23.71103 37009 ft 453 kts 175°
2026-04-30 11:49 38.21089 23.72609 37002 ft 453 kts 175°
2026-04-30 11:49 38.14889 23.74114 37008 ft 454 kts 175°
2026-04-30 11:50 38.08719 23.75610 37001 ft 454 kts 175°
2026-04-30 11:50 38.02518 23.77112 37004 ft 454 kts 175°
2026-04-30 11:51 37.96321 23.78610 37031 ft 453 kts 175°
2026-04-30 11:51 37.90130 23.80103 37036 ft 453 kts 175°
2026-04-30 11:52 37.83930 23.81332 37035 ft 450 kts 179°
2026-04-30 11:52 37.77723 23.82279 37038 ft 449 kts 179°
2026-04-30 11:53 37.74658 23.82820 36810 ft 455 kts 173°
2026-04-30 11:53 37.71573 23.83808 36419 ft 456 kts 170°
2026-04-30 11:53 37.68542 23.84918 36008 ft 452 kts 169°
2026-04-30 11:53 37.65545 23.86051 35567 ft 449 kts 169°
2026-04-30 11:54 37.62562 23.87173 35181 ft 444 kts 169°
2026-04-30 11:54 37.59608 23.88199 34872 ft 436 kts 172°
2026-04-30 11:54 37.56688 23.89038 34617 ft 427 kts 174°
2026-04-30 11:54 37.53793 23.89792 34285 ft 423 kts 174°
2026-04-30 11:55 37.50914 23.90516 33806 ft 421 kts 174°
2026-04-30 11:55 37.48046 23.91239 33281 ft 420 kts 174°
2026-04-30 11:55 37.45222 23.91962 32753 ft 420 kts 174°
2026-04-30 11:55 37.42362 23.92706 32235 ft 419 kts 173°
2026-04-30 11:56 37.39507 23.93458 31727 ft 419 kts 173°
2026-04-30 11:56 37.36655 23.94214 31232 ft 419 kts 173°
2026-04-30 11:56 37.33805 23.94973 30743 ft 418 kts 173°
2026-04-30 11:56 37.30959 23.95732 30261 ft 418 kts 173°
2026-04-30 11:57 37.28114 23.96491 29714 ft 418 kts 173°
2026-04-30 11:57 37.25276 23.97248 29161 ft 416 kts 173°
2026-04-30 11:57 37.22444 23.98002 28625 ft 415 kts 173°
2026-04-30 11:57 37.19624 23.98752 28088 ft 414 kts 173°
2026-04-30 11:58 37.16849 23.99490 27571 ft 413 kts 173°
2026-04-30 11:58 37.14045 24.00235 27057 ft 411 kts 172°
2026-04-30 11:58 37.11257 24.00974 26557 ft 410 kts 172°
2026-04-30 11:58 37.08473 24.01713 26001 ft 409 kts 172°
2026-04-30 11:59 37.05677 24.02452 25448 ft 410 kts 172°
2026-04-30 11:59 37.02896 24.03188 25008 ft 407 kts 172°
2026-04-30 11:59 37.00162 24.03914 24602 ft 396 kts 172°
2026-04-30 11:59 36.97498 24.04621 24215 ft 386 kts 172°
2026-04-30 12:00 36.94902 24.05309 23852 ft 377 kts 172°
2026-04-30 12:00 36.92401 24.05971 23472 ft 368 kts 172°
2026-04-30 12:00 36.89919 24.06626 23073 ft 362 kts 172°
2026-04-30 12:00 36.87462 24.07272 22701 ft 359 kts 172°
2026-04-30 12:01 36.85026 24.07912 22344 ft 356 kts 172°
2026-04-30 12:01 36.82608 24.08547 21989 ft 354 kts 172°
2026-04-30 12:01 36.80213 24.09176 21630 ft 351 kts 172°
2026-04-30 12:01 36.77833 24.09801 21292 ft 348 kts 172°
2026-04-30 12:02 36.75472 24.10421 20953 ft 346 kts 172°
2026-04-30 12:02 36.73128 24.11037 20609 ft 343 kts 172°
2026-04-30 12:02 36.70794 24.11649 20283 ft 341 kts 172°
2026-04-30 12:02 36.68477 24.12256 19940 ft 339 kts 172°
2026-04-30 12:03 36.66171 24.12860 19610 ft 338 kts 172°
2026-04-30 12:03 36.61591 24.14059 18950 ft 335 kts 172°
2026-04-30 12:03 36.59343 24.14647 18617 ft 334 kts 172°
2026-04-30 12:04 36.57068 24.15241 18274 ft 334 kts 172°
2026-04-30 12:04 36.54801 24.15834 17898 ft 332 kts 172°
2026-04-30 12:04 36.52544 24.16423 17557 ft 330 kts 172°
2026-04-30 12:04 36.50299 24.17009 17218 ft 329 kts 172°
2026-04-30 12:05 36.48073 24.17590 16891 ft 327 kts 172°
2026-04-30 12:05 36.45855 24.18168 16560 ft 325 kts 172°
2026-04-30 12:05 36.43645 24.18744 16242 ft 323 kts 172°
2026-04-30 12:05 36.41456 24.19314 15917 ft 321 kts 172°
2026-04-30 12:06 36.39273 24.19882 15594 ft 320 kts 172°
2026-04-30 12:06 36.37831 24.20257 15382 ft 319 kts 172°
2026-04-30 12:06 36.34966 24.21002 14962 ft 317 kts 172°
2026-04-30 12:06 36.32810 24.21562 14632 ft 316 kts 172°
2026-04-30 12:07 36.30663 24.22119 14326 ft 315 kts 172°
2026-04-30 12:07 36.28523 24.22675 14004 ft 314 kts 172°
2026-04-30 12:07 36.27113 24.23040 13796 ft 313 kts 172°
2026-04-30 12:07 36.24260 24.23780 13326 ft 312 kts 172°
2026-04-30 12:08 36.22857 24.24143 13121 ft 311 kts 172°
2026-04-30 12:08 36.20745 24.24690 12788 ft 309 kts 172°
2026-04-30 12:08 36.18647 24.25233 12471 ft 307 kts 172°
2026-04-30 12:08 36.16558 24.25774 12158 ft 306 kts 171°
2026-04-30 12:09 36.14481 24.26311 11842 ft 304 kts 171°
2026-04-30 12:09 36.12414 24.26845 11532 ft 303 kts 171°
2026-04-30 12:09 36.10357 24.27376 11223 ft 301 kts 171°
2026-04-30 12:09 36.08310 24.27904 10914 ft 300 kts 171°
2026-04-30 12:10 36.06270 24.28431 10607 ft 299 kts 171°
2026-04-30 12:10 36.04238 24.28955 10305 ft 298 kts 171°
2026-04-30 12:10 36.02253 24.29467 10136 ft 292 kts 171°
2026-04-30 12:10 36.00289 24.29974 9977 ft 285 kts 171°
2026-04-30 12:11 35.98347 24.30474 9668 ft 285 kts 171°
2026-04-30 12:11 35.96415 24.30971 9381 ft 283 kts 171°
2026-04-30 12:11 35.94496 24.31464 9097 ft 281 kts 171°
2026-04-30 12:11 35.92587 24.31954 8817 ft 279 kts 171°
2026-04-30 12:12 35.90692 24.32441 8547 ft 277 kts 171°
2026-04-30 12:12 35.88807 24.32925 8272 ft 276 kts 171°
2026-04-30 12:12 35.86935 24.33406 7998 ft 274 kts 171°
2026-04-30 12:12 35.85074 24.33883 7729 ft 272 kts 171°
2026-04-30 12:13 35.83225 24.34357 7463 ft 271 kts 171°
2026-04-30 12:13 35.81387 24.34828 7195 ft 269 kts 171°
2026-04-30 12:13 35.79583 24.35290 6935 ft 268 kts 171°
2026-04-30 12:13 35.77764 24.35756 6672 ft 266 kts 170°
2026-04-30 12:14 35.75955 24.36219 6400 ft 265 kts 170°
2026-04-30 12:14 35.74154 24.36680 6120 ft 264 kts 170°
2026-04-30 12:14 35.72361 24.37139 5846 ft 263 kts 170°
2026-04-30 12:14 35.70579 24.37594 5558 ft 262 kts 170°
2026-04-30 12:15 35.68801 24.38049 5280 ft 260 kts 170°
2026-04-30 12:15 35.67030 24.38501 5005 ft 259 kts 170°
2026-04-30 12:15 35.65265 24.38952 4742 ft 258 kts 170°
2026-04-30 12:15 35.63507 24.39401 4459 ft 257 kts 169°
2026-04-30 12:16 35.61774 24.39892 4294 ft 252 kts 168°
2026-04-30 12:16 35.60085 24.40394 4171 ft 249 kts 168°
2026-04-30 12:16 35.58391 24.40890 3965 ft 252 kts 171°
2026-04-30 12:16 35.56668 24.40820 3763 ft 247 kts 198°
2026-04-30 12:17 35.53580 24.39273 3416 ft 237 kts 204°
2026-04-30 12:17 35.52084 24.38465 3234 ft 233 kts 205°
2026-04-30 12:17 35.50661 24.37591 3101 ft 223 kts 213°
2026-04-30 12:18 35.49532 24.36400 3001 ft 208 kts 237°
2026-04-30 12:18 35.48807 24.34864 3015 ft 209 kts 240°
2026-04-30 12:18 35.48081 24.33328 2999 ft 207 kts 243°
2026-04-30 12:18 35.47795 24.31634 2952 ft 208 kts 280°
2026-04-30 12:19 35.48343 24.29981 2744 ft 212 kts 294°
2026-04-30 12:19 35.48881 24.28330 2461 ft 209 kts 290°
2026-04-30 12:19 35.49390 24.26688 2186 ft 202 kts 290°
2026-04-30 12:19 35.49891 24.25130 1926 ft 190 kts 291°
2026-04-30 12:20 35.50361 24.23677 1688 ft 177 kts 291°
2026-04-30 12:20 35.50793 24.22337 1477 ft 161 kts 291°
2026-04-30 12:20 35.51187 24.21083 1240 ft 155 kts 290°
2026-04-30 12:20 35.51576 24.19862 1043 ft 154 kts 292°
2026-04-30 12:21 35.51980 24.18643 854 ft 154 kts 290°
2026-04-30 12:21 35.52370 24.17439 649 ft 149 kts 291°
2026-04-30 12:21 35.52748 24.16268 502 ft 144 kts 292°
2026-04-30 12:21 35.53066 24.15296 488 ft 92 kts 291°
2026-04-30 12:22 35.53240 24.14753 489 ft 48 kts 291°
2026-04-30 12:22 35.53346 24.14432 491 ft 33 kts 292°
2026-04-30 12:22 35.53408 24.14280 492 ft 16 kts 328°
2026-04-30 12:22 35.53510 24.14299 497 ft 15 kts 19°
2026-04-30 12:23 35.53606 24.14344 491 ft 14 kts 21°
2026-04-30 12:23 35.53690 24.14328 490 ft 14 kts 296°
2026-04-30 12:23 35.53725 24.14220 492 ft 13 kts 291°
2026-04-30 12:23 35.53759 24.14117 492 ft 13 kts 291°
2026-04-30 12:24 35.53791 24.14017 496 ft 12 kts 292°
2026-04-30 12:24 35.53832 24.13928 495 ft 12 kts 339°
2026-04-30 12:24 35.53896 24.13947 497 ft 2 kts 21°
2026-04-30 12:24 35.53903 24.13950 497 ft 0 kts 21°